User: anonymous   Login
Location: Unspecified
(0.0000°N, 0.0000°E)
Time: 23:51:45
(UTC+00:00)
Language:

TBA - TO BE ASSIGNED - Orbit

View from above orbital plane
View from above orbital plane
View from above satellite
View from above satellite

Ground track
Ground track

The orbit is defined by the following mean orbital elements,

1 67841U          26145.44637426 +.00000000 +00000-0 +72928-3 0 00004
2 67841  43.0060 193.5084 0002909 275.2008  84.8511 15.27606503    07
Epoch (UTC): 25 May 2026 10:42:46
Eccentricity: 0.0002909
inclination: 43.0060°
perigee height: 481 km
apogee height: 485 km
right ascension of ascending node: 193.5084°
argument of perigee: 275.2008°
revolutions per day: 15.27606503
mean anomaly at epoch: 84.8511°

The dashed part of the orbit path shows where the satellite is in the earth's shadow,  

DLR